Location: Malvern Link
(52.1333°N, 2.3000°W)
Time: 19:52:51
(UTC+00:00)

QB50P2 - Pass Details

Date: 06 July 2022
Orbit: 590 x 605 km, 97.9° (Epoch: 11 August)

Event Time Altitude Azimuth Distance (km) Brightness Sun altitude
Rises 00:56:15 0° 22° (NNE) 2,866 ? -14.6°
Reaches altitude 10° 00:58:39 10° 33° (NNE) 1,960 ? -14.5°
Maximum altitude 01:02:25 30° 95° (E) 1,099 ? -14.4°
Enters shadow 01:05:15 15° 150° (SSE) 1,645 ? -14.3°
